Location: *
(58.7167°N, 26.1833°E)
Time: 00:59:52
(UTC+00:00)

Cosmos 1340 - Pass Details

Date: 25 August 2019
Orbit: 503 x 506 km, 81.2° (Epoch: 19 September)

Event Time Altitude Azimuth Distance (km) Brightness Sun altitude
Exits shadow 18:56:16 - 163° (SSE) 1,774 4.9 -9.7°
Reaches altitude 10° 18:56:25 10° 162° (SSE) 1,717 4.8 -9.7°
Maximum altitude 18:59:52 36° 96° (E) 826 3.3 -10.0°
Drops below altitude 10° 19:03:22 10° 29° (NNE) 1,731 5.5 -10.4°
Sets 19:05:36 0° 21° (NNE) 2,622 6.6 -10.6°
